Regional Weather Roundup
Issued by NWS Midland/Odessa, TX

Home | Current Version | Previous Version | Text Only | Print | Product List | Glossary On
Versions: 1 2 3 4 5 6 7 8 9 10 11 12 13 14 15 16 17 18 19 20 21 22 23 24 25 26 27 28 29 30 31 32 33 34 35 36 37 38 39 40 41 42 43 44 45 46 47 48 49 50
000
ASUS44 KMAF 032210
RWRMAF
MIDLAND AREA WEATHER ROUNDUP
NATIONAL WEATHER SERVICE MIDLAND TX
500 PM CDT TUE MAY 03 2016

...IN SOUTHWEST TEXAS AND SOUTHEAST NEW MEXICO...

CITY           SKY/WX    TMP DP  RH WIND       PRES   REMARKS
ALPINE         PTSUNNY   81  32  17 S6G18     30.09F
ANDREWS        FAIR      79  35  20 SW6G20    30.04F
ARTESIA        MOSUNNY   77  34  20 N7        30.06F
BIG SPRING     SUNNY     76  38  25 S3        30.04F
CARLSBAD       SUNNY     81  32  17 N10       30.02F
DRYDEN           N/A     81  47  30 E13G18    29.98F
FORT STOCKTON  SUNNY     83  39  21 NE14G20   30.00F
GUAD PASS      SUNNY     79  26  14 SW20      30.12F
HOBBS          PTSUNNY   77  28  16 W15       30.05F
MARFA          MOSUNNY   79  33  19 VRB7      30.07F
MIDLAND AIRPK  MOSUNNY   81  35  19 S6        30.03F
MIDLAND INTL   SUNNY     79  36  21 CALM      30.02F
ODESSA         SUNNY     79  35  20 CALM      30.03F
PECOS          SUNNY     83  33  16 NE9       29.99F
PRESIDIO       FAIR      87  41  19 MISG      29.94F
SEMINOLE       MOSUNNY   77  32  19 SW8       30.04F
SNYDER           N/A     75  41  29 CALM      30.03F
WINK           SUNNY     81  35  19 CALM      30.00F
$$
...OTHER STATIONS IN TEXAS...

CITY           SKY/WX    TMP DP  RH WIND       PRES   REMARKS
ABILENE        SUNNY     75  49  39 E8        30.02F
AMARILLO       PTSUNNY   68  36  30 N14       30.09F
AUSTIN         SUNNY     76  49  38 N12       30.01F
BROWNSVILLE    CLOUDY    73  63  70 N10       29.98F
CORPUS CHRISTI MOSUNNY   81  52  36 NE8       29.97F
DALLAS FTW     MOSUNNY   74  43  32 NE12      30.02F
DEL RIO        SUNNY     79  56  45 S10       29.97F
EL PASO        MOSUNNY   83  30  14 VRB5      30.03F
HOUSTON INT    SUNNY     75  50  41 N14       29.97F
LUBBOCK        TSTM      63  52  67 N13G31    30.10R
SAN ANGELO     SUNNY     79  45  29 VRB5      30.02F
SAN ANTONIO    SUNNY     79  47  32 NE9G16    30.00F
WACO           SUNNY     74  47  38 NE12      30.03F
WICHITA FALLS  NOT AVBL
$$
...OTHER LOCATIONS IN NEW MEXICO...

CITY           SKY/WX    TMP DP  RH WIND       PRES   REMARKS
ALAMAGORDO     MOSUNNY   77  25  14 NW10G26   30.08F
ALBUQUERQUE    MOSUNNY   72  22  15 N10       30.15F
CANNON AFB     SUNNY     70  33  25 NE10G20   30.12F
CLOVIS         MOSUNNY   70  36  28 N12G21    30.14F
HOLLOMAN AFB   SUNNY     77  25  14 CALM      30.06F
ROSWELL        CLOUDY    76  37  24 NE12      30.09R
RUIDOSO          N/A     63  28  27 N13G22    30.23F
SANTA FE       SUNNY     69  16  13 N9        30.19F
TRUTH OR CONSE PTSUNNY   74  28  18 VRB3      30.10F
TUCUMCARI      MOSUNNY   75  25  15 N15G28    30.11F
$$




USA.gov is the U.S. government's official web portal to all federal, state and local government web resources and services.